Location: Altleiningen
(49.5078°N, 8.0741°E)
Time: 11:20:24
(UTC+00:00)

CSL-04 Rocket - Pass Details

Date: 03 March 2021
Orbit: 805 x 861 km, 98.9° (Epoch: 13 April)

Event Time Altitude Azimuth Distance (km) Brightness Sun altitude
Rises 18:22:08 0° 160° (SSE) 3,425 6.6 -11.9°
Reaches altitude 10° 18:24:30 10° 160° (SSE) 2,490 5.9 -12.2°
Maximum altitude 18:30:03 84° 73° (ENE) 866 3.7 -13.1°
Drops below altitude 10° 18:35:35 10° 346° (NNW) 2,484 6.4 -14.0°
Sets 18:37:57 0° 346° (NNW) 3,417 7.1 -14.4°
